Flight Track Log - Related Links

Times and Time Zones

All times are in EDT time to prevent confusion due to time zone crossing. See the EGF2794 flight status page for this flight to view local times or setup timezone preferences in your user account.

Time Position Orientation Groundspeed Altitude Reporting Facility
EDT Latitude Longitude Course Direction KTS MPH feet Rate Location/Type
10:16PM 32.9000 -97.0500 28° Northeast 163 188 1,000  Level Dallas / Fort Worth TRACON
10:17PM 32.9333 -97.0500 360° North 162 186 2,200 2,077 Climbing Dallas / Fort Worth TRACON
10:18PM 32.9681 -97.0531 356° North 188 216 3,700 2,077 Climbing Fort Worth Center
10:19PM 33.2012 -96.7832 35° Northeast  Level Estimated
10:19PM 33.0286 -97.0539 359° North 216 249 5,800  Level Fort Worth Center
10:20PM 33.3224 -96.8139 348° North  Level FlightAware Approximate
10:20PM 33.1047 -97.0569 358° North 252 290 8,000  Level Fort Worth Center
10:21PM 33.4478 -96.8167 North  Level FlightAware Approximate
10:21PM 33.1772 -97.0472 North 284 327 10,000  Level Fort Worth Center
10:22PM 33.5548 -96.7425 28° Northeast  Level FlightAware Approximate
10:22PM 33.2533 -96.9847 34° Northeast 338 389 10,600  Level Fort Worth Center
10:23PM 33.3428 -96.9094 35° Northeast 369 425 12,100 1,366 Climbing Fort Worth Center
10:24PM 33.4306 -96.8389 34° Northeast 377 434 13,400 1,366 Climbing Fort Worth Center
10:25PM 33.5239 -96.7739 30° Northeast 388 447 14,900 1,463 Climbing Fort Worth Center
10:26PM 33.6261 -96.7094 28° Northeast 388 447 16,400 1,415 Climbing Fort Worth Center
10:27PM 33.7167 -96.6297 36° Northeast 399 459 17,800 1,268 Climbing Fort Worth Center
10:28PM 33.8072 -96.5503 36° Northeast 401 461 19,000 1,220 Climbing Fort Worth Center
10:29PM 33.9006 -96.4717 35° Northeast 401 461 20,300 1,366 Climbing Fort Worth Center
10:30PM 33.9936 -96.3906 36° Northeast 407 468 21,800 1,366 Climbing Fort Worth Center
10:31PM 34.0869 -96.3103 35° Northeast 408 470 23,100 1,463 Climbing Fort Worth Center
10:32PM 34.1911 -96.2189 36° Northeast 409 471 24,800 1,512 Climbing Fort Worth Center
10:33PM 34.2853 -96.1381 35° Northeast 415 478 26,200 1,317 Climbing Fort Worth Center
10:34PM 34.3778 -96.0578 36° Northeast 414 476 27,500 1,317 Climbing Fort Worth Center
10:35PM 34.4692 -95.9778 36° Northeast 410 472 28,900 1,377 Climbing Fort Worth Center
10:36PM 34.5589 -95.8997 36° Northeast 405 466 30,300 1,317 Climbing Fort Worth Center
10:37PM 34.6506 -95.8192 36° Northeast 404 465 31,600 1,317 Climbing Fort Worth Center
10:38PM 34.7425 -95.7389 36° Northeast 405 466 33,000 1,366 Climbing Fort Worth Center
10:39PM 34.8333 -95.6586 36° Northeast 405 466 34,400 1,220 Climbing Fort Worth Center
10:40PM 34.9211 -95.5806 36° Northeast 397 457 35,500 1,024 Climbing Fort Worth Center
10:41PM 35.0242 -95.4894 36° Northeast 386 444 36,500 585 Climbing Fort Worth Center
10:42PM 35.1125 -95.4117 36° Northeast 385 443 36,700 244 Climbing Fort Worth Center
10:43PM 35.2042 -95.3297 36° Northeast 402 463 37,000 146 Climbing Fort Worth Center
10:44PM 35.2989 -95.2453 36° Northeast 416 479 37,000  Level Fort Worth Center
10:45PM 35.3989 -95.1556 36° Northeast 439 505 37,000  Level Fort Worth Center
10:46PM 35.5022 -95.0622 36° Northeast 457 526 37,000  Level Fort Worth Center
10:47PM 35.6111 -94.9639 36° Northeast 481 554 37,000  Level Fort Worth Center
10:48PM 35.6769 -94.9014 38° Northeast 484 557 37,000  Level Memphis Center
10:49PM 35.7892 -94.7994 36° Northeast 496 571 37,000  Level Memphis Center
10:50PM 35.9019 -94.6958 37° Northeast 501 577 37,000  Level Memphis Center
10:51PM 36.0147 -94.5914 37° Northeast 505 581 37,000  Level Memphis Center
10:52PM 36.1281 -94.4886 36° Northeast 506 582 37,000  Level Memphis Center
10:53PM 36.2397 -94.3844 37° Northeast 506 582 37,000  Level Memphis Center
10:54PM 36.3506 -94.2817 37° Northeast 505 581 37,000  Level Memphis Center
10:55PM 36.4828 -94.1589 37° Northeast 503 579 37,000  Level Memphis Center
10:56PM 36.5919 -94.0567 37° Northeast 497 572 37,000  Level Memphis Center
10:57PM 36.7014 -93.9550 37° Northeast 493 567 37,000  Level Memphis Center
10:58PM 36.7458 -93.9147 36° Northeast 495 570 37,000  Level Kansas City Center
10:59PM 36.8542 -93.8119 37° Northeast 491 565 37,000  Level Kansas City Center
11:00PM 36.9600 -93.7103 37° Northeast 488 562 37,000  Level Kansas City Center
11:01PM 37.0683 -93.6081 37° Northeast 488 562 37,000  Level Kansas City Center
11:02PM 37.1767 -93.5053 37° Northeast 488 562 37,000  Level Kansas City Center
11:03PM 37.2844 -93.4028 37° Northeast 487 560 37,000  Level Kansas City Center
11:04PM 37.4131 -93.2775 38° Northeast 487 560 37,000  Level Kansas City Center
11:05PM 37.5156 -93.1675 40° Northeast 486 559 37,000  Level Kansas City Center
11:06PM 37.6203 -93.0589 39° Northeast 486 559 37,000  Level Kansas City Center
11:07PM 37.7233 -92.9500 40° Northeast 485 558 37,000  Level Kansas City Center
11:08PM 37.8264 -92.8431 39° Northeast 480 552 37,000  Level Kansas City Center
11:09PM 37.9275 -92.7344 40° Northeast 486 559 37,000  Level Kansas City Center
11:10PM 38.0294 -92.6264 40° Northeast 484 557 37,000  Level Kansas City Center
11:11PM 38.1306 -92.5197 40° Northeast 482 555 37,000  Level Kansas City Center
11:12PM 38.2431 -92.4003 40° Northeast 481 554 37,000  Level Kansas City Center
11:13PM 38.3467 -92.2903 40° Northeast 481 554 37,000  Level Kansas City Center
11:14PM 38.4494 -92.1800 40° Northeast 479 551 37,000  Level Kansas City Center
11:15PM 38.5514 -92.0683 41° Northeast 479 551 37,000  Level Kansas City Center
11:16PM 38.6525 -91.9589 40° Northeast 478 550 37,000  Level Kansas City Center
11:17PM 38.7550 -91.8483 40° Northeast 478 550 37,000  Level Kansas City Center
11:18PM 38.8561 -91.7367 41° Northeast 478 550 37,000  Level Kansas City Center
11:19PM 38.9650 -91.6194 40° Northeast 478 550 37,000  Level Kansas City Center
11:20PM 39.0664 -91.5083 40° Northeast 478 550 37,000 -148 Level Kansas City Center
11:21PM 39.1683 -91.3964 40° Northeast 478 550 36,700 -639 Descending Kansas City Center
11:22PM 39.2719 -91.2839 40° Northeast 481 554 35,700 -1,033 Descending Kansas City Center
11:23PM 39.3764 -91.1664 41° Northeast 491 565 34,600 -1,463 Descending Kansas City Center
11:24PM 39.4744 -91.0567 41° Northeast 481 554 32,700 -2,000 Descending Kansas City Center
11:25PM 39.5703 -90.9500 41° Northeast 464 534 30,500 -2,350 Descending Kansas City Center
11:26PM 39.6669 -90.8422 41° Northeast 459 528 28,000 -2,705 Descending Kansas City Center
11:27PM 39.7683 -90.7244 42° Northeast 467 537 25,000 -2,952 Descending Kansas City Center
11:28PM 39.8633 -90.6167 41° Northeast 460 529 21,900 -3,000 Descending Kansas City Center
11:29PM 39.9550 -90.5133 41° Northeast 443 510 18,900 -2,803 Descending Kansas City Center
11:30PM 40.0406 -90.4147 41° Northeast 419 482 16,200 -2,459 Descending Kansas City Center
11:31PM 40.1192 -90.3258 41° Northeast 386 444 13,900 -2,016 Descending Kansas City Center
11:32PM 40.1914 -90.2392 42° Northeast 359 413 12,100 -1,377 Descending Kansas City Center
11:33PM 40.2511 -90.1450 50° Northeast 343 395 11,100 -934 Descending Kansas City Center
11:34PM 40.3097 -90.0525 50° Northeast 336 387 10,200 -1,099 Descending Kansas City Center
11:35PM 40.3792 -89.9453 50° Northeast 277 319 8,700 -1,374 Descending Chicago Center
11:36PM 40.4258 -89.8706 51° Northeast 272 313 7,200 -1,525 Descending Chicago Center
11:37PM 40.4689 -89.8061 49° Northeast 243 280 5,600 -1,587 Descending Chicago Center
11:38PM 40.5119 -89.7397 50° Northeast 240 276 4,000 -1,289 Descending Chicago Center
11:39PM 40.5569 -89.6725 49° Northeast 241 277 3,000 -885 Descending Chicago Center
11:40PM 40.5917 -89.6139 52° Northeast 223 257 2,200 -590 Descending Chicago Center
11:41PM 40.6222 -89.6222 348° North 173 199 1,800 -492 Descending Chicago Center
11:43PM 40.6428 -89.6586 307° West 141 162 1,200 -595 Descending Chicago Center
11:44PM 40.6644 -89.6981 306° West 130 150 600 -600 Descending Chicago Center

Login

Don't have an account? Register now (free) for customized features, flight alerts, and more!